Regional Weather Roundup
Issued by NWS Albany, NY

Home | Current Version | Previous Version | Text Only | Print | Product List | Glossary On
Versions: 1 2 3 4 5 6 7 8 9 10 11 12 13 14 15 16 17 18 19 20 21 22 23 24 25 26 27
000
ASUS41 KALY 040410
RWRALY

NEW YORK STATE HOURLY WEATHER ROUNDUP
NATIONAL WEATHER SERVICE ALBANY NY
1100 PM EST SAT DEC 03 2016

NOTE: "FAIR" INDICATES FEW OR NO CLOUDS BELOW 12,000 FEET WITH NO
SIGNIFICANT WEATHER AND/OR NO OBSTRUCTIONS TO VISIBILITY.

NYZ032-033-038>043-046>054-057>066-NYZ062>081-082-084-040500-
EAST


CITY           SKY/WX    TMP DP  RH WIND       PRES   REMARKS
ALBANY         CLOUDY    36  23  59 NW9       30.14R WCI  29
GLENS FALLS    CLOUDY    36  19  50 NW9       30.13R WCI  29
POUGHKEEPSIE   CLOUDY    37  27  67 NE5       30.14R WCI  33
NEWBURGH       CLOUDY    39  28  65 NW9       30.14R WCI  33
MONTGOMERY     CLOUDY    40  26  57 NW9       30.13R WCI  34
WHITE PLAINS   MOCLDY    41  26  55 NW12      30.11R
ISLIP          MOCLDY    41  28  60 N5        30.13R
NEW YORK CITY  MOCLDY    45  28  51 NW21G29   30.14R
CENTRAL PARK   CLOUDY    43  25  49 VRB7      30.17R
$$

NYZ005>009-017-018-044>046-055-056-040500-
CENTRAL


CITY           SKY/WX    TMP DP  RH WIND       PRES   REMARKS
FULTON         CLOUDY    36  24  62 W8        30.19R WCI  30
SYRACUSE       CLOUDY    35  24  64 NW8       30.18R WCI  29
ROME           CLOUDY    33  26  75 NW6       30.18S WCI  28
ELMIRA         CLOUDY    38  25  59 VRB7G17   30.18R WCI  33
BINGHAMTON     CLOUDY    31  25  78 NW8       30.13R WCI  23
MONTICELLO     CLOUDY    34  25  69 NW16G23   30.12R WCI  23
$$

NYZ026>034-041>043-087-040500-
NORTH


CITY           SKY/WX    TMP DP  RH WIND       PRES   REMARKS
WATERTOWN      CLOUDY    32  22  66 N10       30.20R WCI  24
FORT DRUM      NOT AVBL
OGDENSBURG     CLOUDY    32  23  69 NW9       30.20R WCI  24
MASSENA        CLOUDY    33  20  58 NW8       30.19R WCI  26
SARANAC LAKE   CLOUDY    25  19  78 VRB5      30.07R WCI  19
PLATTSBURGH    CLOUDY    33  22  63 NW6       30.14R WCI  28
$$

NYZ001>004-010>016-019>021-085-040500-
WEST


CITY           SKY/WX    TMP DP  RH WIND       PRES   REMARKS
NIAGARA FALLS  CLOUDY    39  30  70 W7        30.23R WCI  34
BUFFALO        CLOUDY    37  31  78 W6        30.23R WCI  32
DUNKIRK        CLOUDY    39  31  72 NW9       30.25R WCI  33
JAMESTOWN      CLOUDY    34  28  80 W7        30.21R WCI  28
WELLSVILLE     CLOUDY    34  28  79 NW8       30.18R WCI  27
ROCHESTER      CLOUDY    38  31  76 NW5       30.22R WCI  34
PENN YAN       CLOUDY    36  27  69 N3        30.19R
$$

             KEY
       WCI = WIND CHILL INDEX
       VSB = VISIBILITY
       HX  = HEAT INDEX
$$




USA.gov is the U.S. government's official web portal to all federal, state and local government web resources and services.